Time,TemperatureF,DewpointF,PressureIn,WindDirection,WindDirectionDegrees,WindSpeedMPH,WindSpeedGustMPH,Humidity,HourlyPrecipIn,Conditions,Clouds,dailyrainin,SoftwareType,DateUTC
2013-03-25 00:00:00,31.9,23.9,29.85,NW,319,0.0,0.0,72,0.00,,,0.00,Weather View 32 v70,2013-03-25 05:00:00,
2013-03-25 00:10:00,32.0,23.7,29.78,NNE,27,0.0,0.0,71,0.00,,,0.00,Weather View 32 v70,2013-03-25 05:10:00,
2013-03-25 00:20:00,32.0,23.3,29.82,NW,319,0.0,0.0,70,0.00,,,0.00,Weather View 32 v70,2013-03-25 05:20:00,
2013-03-25 00:25:00,31.9,23.2,29.64,North,4,0.0,0.0,70,0.00,,,0.00,Weather View 32 v70,2013-03-25 05:25:00,
2013-03-25 00:35:00,31.8,22.8,29.83,NW,319,0.0,0.0,69,0.00,,,0.00,Weather View 32 v70,2013-03-25 05:35:00,
2013-03-25 00:40:00,31.5,22.5,29.84,NW,319,0.0,0.0,69,0.00,,,0.00,Weather View 32 v70,2013-03-25 05:40:00,
2013-03-25 00:50:00,31.4,22.4,29.84,NNW,342,0.0,0.0,69,0.00,,,0.00,Weather View 32 v70,2013-03-25 05:50:00,
2013-03-25 01:00:00,31.0,22.4,29.85,NNW,342,0.0,0.0,70,0.00,,,0.00,Weather View 32 v70,2013-03-25 06:00:00,
2013-03-25 01:05:00,31.0,22.7,29.75,NNW,342,0.0,0.0,71,0.00,,,0.00,Weather View 32 v70,2013-03-25 06:05:00,
2013-03-25 01:15:00,30.9,22.9,29.84,NW,319,0.0,0.0,72,0.00,,,0.00,Weather View 32 v70,2013-03-25 06:15:00,
2013-03-25 01:20:00,30.7,22.7,29.84,NNW,342,0.0,0.0,72,0.00,,,0.00,Weather View 32 v70,2013-03-25 06:20:00,
2013-03-25 01:25:00,30.8,23.2,29.82,NW,319,0.0,0.0,73,0.00,,,0.00,Weather View 32 v70,2013-03-25 06:25:00,
2013-03-25 01:30:00,30.6,23.0,29.85,NNW,342,0.0,0.0,73,0.00,,,0.00,Weather View 32 v70,2013-03-25 06:30:00,
2013-03-25 01:40:00,30.4,22.8,29.73,NW,319,0.0,0.0,73,0.00,,,0.00,Weather View 32 v70,2013-03-25 06:40:00,
2013-03-25 01:50:00,30.1,22.5,29.66,NW,319,0.0,0.0,73,0.00,,,0.00,Weather View 32 v70,2013-03-25 06:50:00,
2013-03-25 02:00:00,29.9,22.3,29.84,NW,319,0.0,0.0,73,0.00,,,0.00,Weather View 32 v70,2013-03-25 07:00:00,
2013-03-25 02:05:00,29.7,22.1,29.82,NW,319,0.0,0.0,73,0.00,,,0.00,Weather View 32 v70,2013-03-25 07:05:00,
2013-03-25 02:10:00,29.7,22.1,29.84,North,4,0.0,0.0,73,0.00,,,0.00,Weather View 32 v70,2013-03-25 07:10:00,
2013-03-25 02:20:00,29.5,21.9,29.85,NW,319,0.0,0.0,73,0.00,,,0.00,Weather View 32 v70,2013-03-25 07:20:00,
2013-03-25 02:25:00,29.4,21.8,29.85,NNW,342,0.0,0.0,73,0.00,,,0.00,Weather View 32 v70,2013-03-25 07:25:00,
2013-03-25 02:35:00,29.3,21.7,29.66,NW,319,0.0,0.0,73,0.00,,,0.00,Weather View 32 v70,2013-03-25 07:35:00,
2013-03-25 02:40:00,29.0,21.4,29.83,NW,319,0.0,0.0,73,0.00,,,0.00,Weather View 32 v70,2013-03-25 07:40:00,
2013-03-25 02:50:00,28.9,21.3,29.80,NW,319,0.0,0.0,73,0.00,,,0.00,Weather View 32 v70,2013-03-25 07:50:00,
2013-03-25 02:55:00,28.9,21.3,29.80,NW,319,0.0,0.0,73,0.00,,,0.00,Weather View 32 v70,2013-03-25 07:55:00,
2013-03-25 03:00:00,28.8,21.2,29.84,NW,319,0.0,0.0,73,0.00,,,0.00,Weather View 32 v70,2013-03-25 08:00:00,
2013-03-25 03:10:00,28.6,21.0,29.85,NW,319,0.0,0.0,73,0.00,,,0.00,Weather View 32 v70,2013-03-25 08:10:00,
2013-03-25 03:15:00,28.6,21.0,29.64,NNW,342,0.0,0.0,73,0.00,,,0.00,Weather View 32 v70,2013-03-25 08:15:00,
2013-03-25 03:20:00,28.5,20.9,29.67,NNW,342,0.0,0.0,73,0.00,,,0.00,Weather View 32 v70,2013-03-25 08:20:00,
2013-03-25 03:27:00,28.5,20.9,29.83,WNW,297,0.0,0.0,73,0.00,,,0.00,Weather View 32 v70,2013-03-25 08:27:00,
2013-03-25 03:35:00,28.4,20.9,29.76,NW,319,0.0,0.0,73,0.00,,,0.00,Weather View 32 v70,2013-03-25 08:35:00,
2013-03-25 03:45:00,28.6,21.0,29.63,NW,319,0.0,0.0,73,0.00,,,0.00,Weather View 32 v70,2013-03-25 08:45:00,
2013-03-25 03:50:00,28.3,20.8,29.83,NW,319,0.0,0.0,73,0.00,,,0.00,Weather View 32 v70,2013-03-25 08:50:00,
2013-03-25 03:55:00,28.3,20.8,29.83,NW,319,0.0,0.0,73,0.00,,,0.00,Weather View 32 v70,2013-03-25 08:55:00,
2013-03-25 04:00:00,28.3,20.8,29.65,NW,319,0.0,0.0,73,0.00,,,0.00,Weather View 32 v70,2013-03-25 09:00:00,
2013-03-25 04:10:00,28.0,20.5,29.80,NW,319,0.0,0.0,73,0.00,,,0.00,Weather View 32 v70,2013-03-25 09:10:00,
2013-03-25 04:15:00,28.1,20.6,29.83,WNW,297,0.0,0.0,73,0.00,,,0.00,Weather View 32 v70,2013-03-25 09:15:00,
2013-03-25 04:25:00,28.0,20.1,29.73,NNW,342,0.0,0.0,72,0.00,,,0.00,Weather View 32 v70,2013-03-25 09:25:00,
2013-03-25 04:30:00,28.0,20.1,29.79,NW,319,0.0,0.0,72,0.00,,,0.00,Weather View 32 v70,2013-03-25 09:30:00,
2013-03-25 04:40:00,27.8,19.9,29.70,NW,319,0.0,0.0,72,0.00,,,0.00,Weather View 32 v70,2013-03-25 09:40:00,
2013-03-25 04:45:00,27.7,19.9,29.83,NW,319,0.0,0.0,72,0.00,,,0.00,Weather View 32 v70,2013-03-25 09:45:00,
2013-03-25 04:50:00,27.8,19.9,29.78,NW,319,0.0,0.0,72,0.00,,,0.00,Weather View 32 v70,2013-03-25 09:50:00,
2013-03-25 05:00:00,27.7,19.9,29.85,NW,319,0.0,0.0,72,0.00,,,0.00,Weather View 32 v70,2013-03-25 10:00:00,
2013-03-25 05:10:00,27.4,19.6,29.83,NW,319,0.0,0.0,72,0.00,,,0.00,Weather View 32 v70,2013-03-25 10:10:00,
2013-03-25 05:15:00,27.3,19.5,29.83,NW,319,0.0,0.0,72,0.00,,,0.00,Weather View 32 v70,2013-03-25 10:15:00,
2013-03-25 05:25:00,27.1,19.3,29.86,NNW,342,0.0,0.0,72,0.00,,,0.00,Weather View 32 v70,2013-03-25 10:25:00,
2013-03-25 05:30:00,27.0,19.2,29.80,NW,319,0.0,0.0,72,0.00,,,0.00,Weather View 32 v70,2013-03-25 10:30:00,
2013-03-25 05:40:00,26.9,19.1,29.85,NW,319,0.0,0.0,72,0.00,,,0.00,Weather View 32 v70,2013-03-25 10:40:00,
2013-03-25 05:50:00,26.8,19.3,29.70,NW,319,0.0,0.0,73,0.00,,,0.00,Weather View 32 v70,2013-03-25 10:50:00,
2013-03-25 05:55:00,26.6,19.1,29.76,West,274,0.0,0.0,73,0.00,,,0.00,Weather View 32 v70,2013-03-25 10:55:00,
2013-03-25 06:05:00,26.4,18.9,29.81,NW,319,0.0,0.0,73,0.00,,,0.00,Weather View 32 v70,2013-03-25 11:05:00,
2013-03-25 06:10:00,26.3,18.8,29.77,NNW,342,0.0,0.0,73,0.00,,,0.00,Weather View 32 v70,2013-03-25 11:10:00,
2013-03-25 06:15:00,26.3,18.8,29.84,NW,319,0.0,0.0,73,0.00,,,0.00,Weather View 32 v70,2013-03-25 11:15:00,
2013-03-25 06:25:00,26.0,18.5,29.73,NW,319,0.0,0.0,73,0.00,,,0.00,Weather View 32 v70,2013-03-25 11:25:00,
2013-03-25 06:30:00,25.8,18.3,29.88,NW,319,0.0,0.0,73,0.00,,,0.00,Weather View 32 v70,2013-03-25 11:30:00,
2013-03-25 06:35:00,25.7,18.2,29.85,NW,319,0.0,0.0,73,0.00,,,0.00,Weather View 32 v70,2013-03-25 11:35:00,
2013-03-25 06:40:00,25.9,18.8,29.87,NW,319,0.0,0.0,74,0.00,,,0.00,Weather View 32 v70,2013-03-25 11:40:00,
2013-03-25 06:50:00,25.6,18.5,29.88,West,274,0.0,0.0,74,0.00,,,0.00,Weather View 32 v70,2013-03-25 11:50:00,
2013-03-25 06:55:00,25.8,18.7,29.84,NNW,342,0.0,0.0,74,0.00,,,0.00,Weather View 32 v70,2013-03-25 11:55:00,
2013-03-25 07:00:00,25.8,18.7,29.64,NW,319,0.0,0.0,74,0.00,,,0.00,Weather View 32 v70,2013-03-25 12:00:00,
2013-03-25 07:05:00,25.5,18.4,29.89,WNW,297,0.0,0.0,74,0.00,,,0.00,Weather View 32 v70,2013-03-25 12:05:00,
2013-03-25 07:15:00,25.4,18.3,29.90,WNW,297,0.0,0.0,74,0.00,,,0.00,Weather View 32 v70,2013-03-25 12:15:00,
2013-03-25 07:25:00,25.5,18.4,29.90,NW,319,0.0,0.0,74,0.00,,,0.00,Weather View 32 v70,2013-03-25 12:25:00,
2013-03-25 07:35:00,25.3,18.2,29.90,WNW,297,0.0,0.0,74,0.00,,,0.00,Weather View 32 v70,2013-03-25 12:35:00,
2013-03-25 07:40:00,25.4,18.3,29.84,NW,319,0.0,0.0,74,0.00,,,0.00,Weather View 32 v70,2013-03-25 12:40:00,
2013-03-25 07:50:00,25.5,18.1,29.88,NW,319,0.0,0.0,73,0.00,,,0.00,Weather View 32 v70,2013-03-25 12:50:00,
2013-03-25 07:55:00,25.5,18.1,29.84,NW,319,0.0,0.0,73,0.00,,,0.00,Weather View 32 v70,2013-03-25 12:55:00,
2013-03-25 08:05:00,25.7,18.2,29.89,NW,319,0.0,0.0,73,0.00,,,0.00,Weather View 32 v70,2013-03-25 13:05:00,
2013-03-25 08:10:00,25.8,18.0,29.91,NW,319,0.0,0.0,72,0.00,,,0.00,Weather View 32 v70,2013-03-25 13:10:00,
2013-03-25 08:15:00,26.0,18.2,29.91,NNW,342,0.0,0.0,72,0.00,,,0.00,Weather View 32 v70,2013-03-25 13:15:00,
2013-03-25 08:25:00,26.2,18.1,29.92,NW,319,0.0,0.0,71,0.00,,,0.00,Weather View 32 v70,2013-03-25 13:25:00,
2013-03-25 08:30:00,26.3,18.2,29.92,NW,319,0.0,0.0,71,0.00,,,0.00,Weather View 32 v70,2013-03-25 13:30:00,
2013-03-25 08:40:00,26.5,18.0,29.76,NW,319,0.0,0.0,70,0.00,,,0.00,Weather View 32 v70,2013-03-25 13:40:00,
2013-03-25 08:45:00,26.8,18.0,29.78,NW,319,0.0,0.0,69,0.00,,,0.00,Weather View 32 v70,2013-03-25 13:45:00,
2013-03-25 08:55:00,27.2,18.4,29.92,NNW,342,0.0,0.0,69,0.00,,,0.00,Weather View 32 v70,2013-03-25 13:55:00,
2013-03-25 09:00:00,27.3,18.1,29.91,NW,319,0.0,0.0,68,0.00,,,0.00,Weather View 32 v70,2013-03-25 14:00:00,
2013-03-25 09:05:00,27.4,18.2,29.79,North,4,0.0,0.0,68,0.00,,,0.00,Weather View 32 v70,2013-03-25 14:05:00,
2013-03-25 09:15:00,27.7,18.2,29.93,North,4,0.0,0.0,67,0.00,,,0.00,Weather View 32 v70,2013-03-25 14:15:00,
2013-03-25 09:20:00,27.7,17.8,29.91,NW,319,0.0,0.0,66,0.00,,,0.00,Weather View 32 v70,2013-03-25 14:20:00,
2013-03-25 09:30:00,28.0,18.1,29.88,NNW,342,0.0,0.0,66,0.00,,,0.00,Weather View 32 v70,2013-03-25 14:30:00,
2013-03-25 09:40:00,28.6,18.3,29.89,NW,319,0.0,0.0,65,0.00,,,0.00,Weather View 32 v70,2013-03-25 14:40:00,
2013-03-25 09:45:00,29.0,18.7,29.62,WNW,297,0.0,0.0,65,0.00,,,0.00,Weather View 32 v70,2013-03-25 14:45:00,
2013-03-25 09:55:00,29.4,18.7,29.92,NW,319,0.0,0.0,64,0.00,,,0.00,Weather View 32 v70,2013-03-25 14:55:00,
2013-03-25 10:00:00,29.3,18.3,29.92,NW,319,0.0,0.0,63,0.00,,,0.00,Weather View 32 v70,2013-03-25 15:00:00,
2013-03-25 10:10:00,29.4,18.0,29.88,NW,319,0.0,0.0,62,0.00,,,0.00,Weather View 32 v70,2013-03-25 15:10:00,
2013-03-25 10:15:00,29.4,18.0,29.92,NW,319,0.0,0.0,62,0.00,,,0.00,Weather View 32 v70,2013-03-25 15:15:00,
2013-03-25 10:25:00,29.6,18.2,29.94,NW,319,0.0,0.0,62,0.00,,,0.00,Weather View 32 v70,2013-03-25 15:25:00,
2013-03-25 10:31:00,29.7,17.9,29.81,NNW,342,0.0,0.0,61,0.00,,,0.00,Weather View 32 v70,2013-03-25 15:31:00,
2013-03-25 10:40:00,30.5,18.6,29.87,NNW,342,0.0,0.0,61,0.00,,,0.00,Weather View 32 v70,2013-03-25 15:40:00,
2013-03-25 10:45:00,30.9,18.6,29.88,NW,319,0.0,0.0,60,0.00,,,0.00,Weather View 32 v70,2013-03-25 15:45:00,
2013-03-25 10:50:00,30.7,18.1,29.93,NNW,342,0.0,0.0,59,0.00,,,0.00,Weather View 32 v70,2013-03-25 15:50:00,
2013-03-25 10:55:00,31.1,18.4,29.94,NNW,342,0.0,0.0,59,0.00,,,0.00,Weather View 32 v70,2013-03-25 15:55:00,
2013-03-25 11:05:00,31.3,18.2,29.93,NNW,342,0.0,0.0,58,0.00,,,0.00,Weather View 32 v70,2013-03-25 16:05:00,
2013-03-25 11:15:00,31.8,18.7,29.92,North,4,0.0,0.0,58,0.00,,,0.00,Weather View 32 v70,2013-03-25 16:15:00,
2013-03-25 11:20:00,32.2,19.1,29.92,WNW,297,0.0,0.0,58,0.00,,,0.00,Weather View 32 v70,2013-03-25 16:20:00,
2013-03-25 11:25:00,32.2,19.1,29.94,North,4,0.0,0.0,58,0.00,,,0.00,Weather View 32 v70,2013-03-25 16:25:00,
2013-03-25 11:30:00,32.4,18.9,29.95,NNW,342,0.0,0.0,57,0.00,,,0.00,Weather View 32 v70,2013-03-25 16:30:00,
2013-03-25 11:40:00,32.8,19.2,29.79,NW,319,0.0,0.0,57,0.00,,,0.00,Weather View 32 v70,2013-03-25 16:40:00,
2013-03-25 11:45:00,33.1,19.5,29.83,WSW,252,0.0,0.0,57,0.00,,,0.00,Weather View 32 v70,2013-03-25 16:45:00,
2013-03-25 11:50:00,32.9,18.9,29.91,NW,319,0.0,0.0,56,0.00,,,0.00,Weather View 32 v70,2013-03-25 16:50:00,
2013-03-25 11:55:00,32.9,18.9,29.93,NW,319,0.0,0.0,56,0.00,,,0.00,Weather View 32 v70,2013-03-25 16:55:00,
2013-03-25 12:05:00,33.0,18.6,29.95,WNW,297,0.0,0.0,55,0.00,,,0.00,Weather View 32 v70,2013-03-25 17:05:00,
2013-03-25 12:10:00,33.5,19.5,29.92,WNW,297,0.0,0.0,56,0.00,,,0.00,Weather View 32 v70,2013-03-25 17:10:00,
2013-03-25 12:20:00,33.3,19.3,29.91,North,4,0.0,0.0,56,0.00,,,0.00,Weather View 32 v70,2013-03-25 17:20:00,
2013-03-25 12:25:00,33.9,19.8,29.85,NW,319,0.0,0.0,56,0.00,,,0.00,Weather View 32 v70,2013-03-25 17:25:00,
2013-03-25 12:32:00,34.0,19.5,29.76,NNW,342,0.0,0.0,55,0.00,,,0.00,Weather View 32 v70,2013-03-25 17:32:00,
2013-03-25 12:40:00,34.5,20.0,29.94,NW,319,0.0,0.0,55,0.00,,,0.00,Weather View 32 v70,2013-03-25 17:40:00,
2013-03-25 12:50:00,34.5,20.0,29.93,NW,319,0.0,0.0,55,0.00,,,0.00,Weather View 32 v70,2013-03-25 17:50:00,
2013-03-25 12:55:00,34.2,19.3,29.95,NNW,342,0.0,0.0,54,0.00,,,0.00,Weather View 32 v70,2013-03-25 17:55:00,
2013-03-25 13:05:00,35.0,20.5,29.86,North,4,0.0,0.0,55,0.00,,,0.00,Weather View 32 v70,2013-03-25 18:05:00,
2013-03-25 13:10:00,35.4,20.4,29.93,NW,319,0.0,0.0,54,0.00,,,0.00,Weather View 32 v70,2013-03-25 18:10:00,
2013-03-25 13:20:00,35.4,20.0,29.93,NW,319,0.0,0.0,53,0.00,,,0.00,Weather View 32 v70,2013-03-25 18:20:00,
2013-03-25 13:25:00,36.1,20.6,29.93,North,4,0.0,0.0,53,0.00,,,0.00,Weather View 32 v70,2013-03-25 18:25:00,
2013-03-25 13:32:00,35.7,19.8,29.94,NW,319,0.0,0.0,52,0.00,,,0.00,Weather View 32 v70,2013-03-25 18:32:00,
2013-03-25 13:40:00,36.2,20.2,29.93,North,4,0.0,0.0,52,0.00,,,0.00,Weather View 32 v70,2013-03-25 18:40:00,
2013-03-25 13:45:00,36.2,19.8,29.84,NW,319,0.0,0.0,51,0.00,,,0.00,Weather View 32 v70,2013-03-25 18:45:00,
2013-03-25 13:50:00,36.8,20.3,29.93,NNW,342,0.0,0.0,51,0.00,,,0.00,Weather View 32 v70,2013-03-25 18:50:00,
2013-03-25 14:00:00,36.8,19.9,29.93,NW,319,0.0,0.0,50,0.00,,,0.00,Weather View 32 v70,2013-03-25 19:00:00,
2013-03-25 14:05:00,36.5,19.6,29.91,North,4,0.0,0.0,50,0.00,,,0.00,Weather View 32 v70,2013-03-25 19:05:00,
2013-03-25 14:10:00,36.8,20.3,29.93,NNW,342,0.0,0.0,51,0.00,,,0.00,Weather View 32 v70,2013-03-25 19:10:00,
2013-03-25 14:15:00,36.6,19.2,29.89,NW,319,0.0,0.0,49,0.00,,,0.00,Weather View 32 v70,2013-03-25 19:15:00,
2013-03-25 14:20:00,36.8,19.9,29.89,NW,319,0.0,0.0,50,0.00,,,0.00,Weather View 32 v70,2013-03-25 19:20:00,
2013-03-25 14:30:00,36.9,19.5,29.93,NW,319,0.0,0.0,49,0.00,,,0.00,Weather View 32 v70,2013-03-25 19:30:00,
2013-03-25 14:35:00,37.1,19.2,29.93,NW,319,0.0,0.0,48,0.00,,,0.00,Weather View 32 v70,2013-03-25 19:35:00,
2013-03-25 14:45:00,37.2,18.8,29.93,NNW,342,0.0,0.0,47,0.00,,,0.00,Weather View 32 v70,2013-03-25 19:45:00,
2013-03-25 14:50:00,37.4,19.5,29.93,NNW,342,0.0,0.0,48,0.00,,,0.00,Weather View 32 v70,2013-03-25 19:50:00,
2013-03-25 15:00:00,36.7,18.3,29.85,NW,319,0.0,0.0,47,0.00,,,0.00,Weather View 32 v70,2013-03-25 20:00:00,
2013-03-25 15:05:00,36.7,18.8,29.74,NW,319,0.0,0.0,48,0.00,,,0.00,Weather View 32 v70,2013-03-25 20:05:00,
2013-03-25 15:16:00,37.3,19.4,29.90,SW,229,0.0,0.0,48,0.00,,,0.00,Weather View 32 v70,2013-03-25 20:16:00,
2013-03-25 15:25:00,37.5,19.1,29.84,NW,319,0.0,0.0,47,0.00,,,0.00,Weather View 32 v70,2013-03-25 20:25:00,
2013-03-25 15:30:00,37.4,18.5,29.89,WNW,297,0.0,0.0,46,0.00,,,0.00,Weather View 32 v70,2013-03-25 20:30:00,
2013-03-25 15:40:00,37.3,18.9,29.90,NW,319,0.0,0.0,47,0.00,,,0.00,Weather View 32 v70,2013-03-25 20:40:00,
2013-03-25 15:45:00,37.3,18.9,29.93,NW,319,0.0,0.0,47,0.00,,,0.00,Weather View 32 v70,2013-03-25 20:45:00,
2013-03-25 15:50:00,37.2,18.3,29.92,WNW,297,0.0,0.0,46,0.00,,,0.00,Weather View 32 v70,2013-03-25 20:50:00,
2013-03-25 16:00:00,37.7,18.8,29.91,NW,319,0.0,0.0,46,0.00,,,0.00,Weather View 32 v70,2013-03-25 21:00:00,
2013-03-25 16:10:00,37.8,18.9,29.86,NW,319,0.0,0.0,46,0.00,,,0.00,Weather View 32 v70,2013-03-25 21:10:00,
2013-03-25 16:15:00,37.9,18.9,29.89,NNW,342,0.0,0.0,46,0.00,,,0.00,Weather View 32 v70,2013-03-25 21:15:00,
2013-03-25 16:25:00,37.6,18.2,29.94,NNW,342,0.0,0.0,45,0.00,,,0.00,Weather View 32 v70,2013-03-25 21:25:00,
2013-03-25 16:30:00,37.6,18.2,29.93,NNW,342,0.0,0.0,45,0.00,,,0.00,Weather View 32 v70,2013-03-25 21:30:00,
2013-03-25 16:40:00,38.0,18.5,29.70,NNW,342,0.0,0.0,45,0.00,,,0.00,Weather View 32 v70,2013-03-25 21:40:00,
2013-03-25 16:50:00,38.1,19.6,29.86,NW,319,0.0,0.0,47,0.00,,,0.00,Weather View 32 v70,2013-03-25 21:50:00,
2013-03-25 16:55:00,37.6,19.2,29.94,NW,319,0.0,0.0,47,0.00,,,0.00,Weather View 32 v70,2013-03-25 21:55:00,
2013-03-25 17:00:00,37.5,19.1,29.94,NW,319,0.0,0.0,47,0.00,,,0.00,Weather View 32 v70,2013-03-25 22:00:00,
2013-03-25 17:10:00,38.1,19.6,29.92,NNE,27,0.0,0.0,47,0.00,,,0.00,Weather View 32 v70,2013-03-25 22:10:00,
2013-03-25 17:15:00,37.9,19.9,29.71,NW,319,0.0,0.0,48,0.00,,,0.00,Weather View 32 v70,2013-03-25 22:15:00,
2013-03-25 17:20:00,37.6,19.2,29.95,WNW,297,0.0,0.0,47,0.00,,,0.00,Weather View 32 v70,2013-03-25 22:20:00,
2013-03-25 17:30:00,37.2,18.8,29.95,WNW,297,0.0,0.0,47,0.00,,,0.00,Weather View 32 v70,2013-03-25 22:30:00,
2013-03-25 17:35:00,37.2,19.3,29.95,NNW,342,0.0,0.0,48,0.00,,,0.00,Weather View 32 v70,2013-03-25 22:35:00,
2013-03-25 17:45:00,37.3,19.4,29.95,NW,319,0.0,0.0,48,0.00,,,0.00,Weather View 32 v70,2013-03-25 22:45:00,
2013-03-25 17:50:00,37.3,19.4,29.94,NW,319,0.0,0.0,48,0.00,,,0.00,Weather View 32 v70,2013-03-25 22:50:00,
2013-03-25 18:00:00,37.3,19.4,29.94,NW,319,0.0,0.0,48,0.00,,,0.00,Weather View 32 v70,2013-03-25 23:00:00,
2013-03-25 18:05:00,37.3,19.4,29.95,NW,319,0.0,0.0,48,0.00,,,0.00,Weather View 32 v70,2013-03-25 23:05:00,
2013-03-25 18:15:00,37.3,19.4,29.95,NW,319,0.0,0.0,48,0.00,,,0.00,Weather View 32 v70,2013-03-25 23:15:00,
2013-03-25 18:20:00,37.2,19.3,29.96,NNW,342,0.0,0.0,48,0.00,,,0.00,Weather View 32 v70,2013-03-25 23:20:00,
2013-03-25 18:30:00,37.0,19.1,29.97,NW,319,0.0,0.0,48,0.00,,,0.00,Weather View 32 v70,2013-03-25 23:30:00,
2013-03-25 18:35:00,36.9,19.5,29.95,NW,319,0.0,0.0,49,0.00,,,0.00,Weather View 32 v70,2013-03-25 23:35:00,
2013-03-25 18:45:00,36.8,19.4,29.89,NNW,342,0.0,0.0,49,0.00,,,0.00,Weather View 32 v70,2013-03-25 23:45:00,
2013-03-25 18:55:00,36.8,19.9,29.92,NW,319,0.0,0.0,50,0.00,,,0.00,Weather View 32 v70,2013-03-25 23:55:00,
2013-03-25 19:00:00,36.8,19.4,29.91,NW,319,0.0,0.0,49,0.00,,,0.00,Weather View 32 v70,2013-03-26 00:00:00,
2013-03-25 19:10:00,36.8,19.9,29.92,NW,319,0.0,0.0,50,0.00,,,0.00,Weather View 32 v70,2013-03-26 00:10:00,
2013-03-25 19:15:00,36.8,19.9,29.94,NW,319,0.0,0.0,50,0.00,,,0.00,Weather View 32 v70,2013-03-26 00:15:00,
2013-03-25 19:25:00,36.6,19.7,29.98,NW,319,0.0,0.0,50,0.00,,,0.00,Weather View 32 v70,2013-03-26 00:25:00,
2013-03-25 19:30:00,36.5,19.6,29.95,NNW,342,0.0,0.0,50,0.00,,,0.00,Weather View 32 v70,2013-03-26 00:30:00,
2013-03-25 19:35:00,36.4,19.5,29.98,NW,319,0.0,0.0,50,0.00,,,0.00,Weather View 32 v70,2013-03-26 00:35:00,
2013-03-25 19:45:00,35.8,20.3,29.83,SSW,207,0.0,0.0,53,0.00,,,0.00,Weather View 32 v70,2013-03-26 00:45:00,
2013-03-25 19:55:00,35.3,20.3,29.95,North,4,0.0,0.0,54,0.00,,,0.00,Weather View 32 v70,2013-03-26 00:55:00,
2013-03-25 20:00:00,35.2,20.2,29.95,NNW,342,0.0,0.0,54,0.00,,,0.00,Weather View 32 v70,2013-03-26 01:00:00,
2013-03-25 20:10:00,35.0,20.5,29.97,NNE,27,0.0,0.0,55,0.00,,,0.00,Weather View 32 v70,2013-03-26 01:10:00,
2013-03-25 20:15:00,34.9,20.8,29.95,WNW,297,0.0,0.0,56,0.00,,,0.00,Weather View 32 v70,2013-03-26 01:15:00,
2013-03-25 20:25:00,34.9,20.8,29.96,NW,319,0.0,0.0,56,0.00,,,0.00,Weather View 32 v70,2013-03-26 01:25:00,
2013-03-25 20:35:00,34.7,20.6,29.99,NNW,342,0.0,0.0,56,0.00,,,0.00,Weather View 32 v70,2013-03-26 01:35:00,
2013-03-25 20:45:00,34.6,20.5,29.99,NW,319,0.0,0.0,56,0.00,,,0.00,Weather View 32 v70,2013-03-26 01:45:00,
2013-03-25 20:50:00,34.5,20.8,30.00,NW,319,0.0,0.0,57,0.00,,,0.00,Weather View 32 v70,2013-03-26 01:50:00,
2013-03-25 21:00:00,34.4,20.7,30.00,NNW,342,0.0,0.0,57,0.00,,,0.00,Weather View 32 v70,2013-03-26 02:00:00,
2013-03-25 21:10:00,34.5,20.8,30.00,NW,319,0.0,0.0,57,0.00,,,0.00,Weather View 32 v70,2013-03-26 02:10:00,
2013-03-25 21:15:00,34.5,20.8,30.00,NW,319,0.0,0.0,57,0.00,,,0.00,Weather View 32 v70,2013-03-26 02:15:00,
2013-03-25 21:20:00,34.4,20.7,30.01,North,4,0.0,0.0,57,0.00,,,0.00,Weather View 32 v70,2013-03-26 02:20:00,
2013-03-25 21:25:00,34.4,20.7,30.01,North,4,0.0,0.0,57,0.00,,,0.00,Weather View 32 v70,2013-03-26 02:25:00,
2013-03-25 21:35:00,34.4,21.1,30.01,NNW,342,0.0,0.0,58,0.00,,,0.00,Weather View 32 v70,2013-03-26 02:35:00,
2013-03-25 21:40:00,34.5,20.8,30.01,NW,319,0.0,0.0,57,0.00,,,0.00,Weather View 32 v70,2013-03-26 02:40:00,
2013-03-25 21:45:00,34.5,20.8,30.01,NNW,342,0.0,0.0,57,0.00,,,0.00,Weather View 32 v70,2013-03-26 02:45:00,
2013-03-25 21:55:00,34.5,20.8,30.02,NW,319,0.0,0.0,57,0.00,,,0.00,Weather View 32 v70,2013-03-26 02:55:00,
2013-03-25 22:00:00,34.4,21.1,30.00,NW,319,0.0,0.0,58,0.00,,,0.00,Weather View 32 v70,2013-03-26 03:00:00,
2013-03-25 22:10:00,34.4,21.1,30.01,East,94,0.0,0.0,58,0.00,,,0.00,Weather View 32 v70,2013-03-26 03:10:00,
2013-03-25 22:15:00,34.4,21.1,29.99,WSW,252,0.0,0.0,58,0.00,,,0.00,Weather View 32 v70,2013-03-26 03:15:00,
2013-03-25 22:20:00,34.1,20.9,30.02,SW,229,0.0,0.0,58,0.00,,,0.00,Weather View 32 v70,2013-03-26 03:20:00,
2013-03-25 22:30:00,33.9,20.7,29.98,ESE,117,0.0,0.0,58,0.00,,,0.00,Weather View 32 v70,2013-03-26 03:30:00,
2013-03-25 22:35:00,33.7,20.9,29.98,ESE,117,0.0,0.0,59,0.00,,,0.00,Weather View 32 v70,2013-03-26 03:35:00,
2013-03-25 22:45:00,33.3,20.5,30.00,West,274,0.0,0.0,59,0.00,,,0.00,Weather View 32 v70,2013-03-26 03:45:00,
2013-03-25 22:50:00,33.3,20.9,29.97,West,274,0.0,0.0,60,0.00,,,0.00,Weather View 32 v70,2013-03-26 03:50:00,
2013-03-25 22:55:00,33.3,20.9,29.98,West,274,0.0,0.0,60,0.00,,,0.00,Weather View 32 v70,2013-03-26 03:55:00,
2013-03-25 23:00:00,33.3,20.9,29.99,WSW,252,0.0,0.0,60,0.00,,,0.00,Weather View 32 v70,2013-03-26 04:00:00,
2013-03-25 23:05:00,33.3,20.9,30.01,South,184,0.0,0.0,60,0.00,,,0.00,Weather View 32 v70,2013-03-26 04:05:00,
2013-03-25 23:10:00,33.3,20.9,30.01,South,184,0.0,0.0,60,0.00,,,0.00,Weather View 32 v70,2013-03-26 04:10:00,
2013-03-25 23:15:00,33.3,20.9,29.96,North,4,0.0,0.0,60,0.00,,,0.00,Weather View 32 v70,2013-03-26 04:15:00,
2013-03-25 23:20:00,33.3,20.9,30.00,WSW,252,0.0,0.0,60,0.00,,,0.00,Weather View 32 v70,2013-03-26 04:20:00,
2013-03-25 23:30:00,33.0,20.6,29.98,SSW,207,0.0,0.0,60,0.00,,,0.00,Weather View 32 v70,2013-03-26 04:30:00,
2013-03-25 23:35:00,32.7,20.7,30.02,WSW,252,0.0,0.0,61,0.00,,,0.00,Weather View 32 v70,2013-03-26 04:35:00,
2013-03-25 23:45:00,32.3,21.1,30.02,SSW,207,0.0,0.0,63,0.00,,,0.00,Weather View 32 v70,2013-03-26 04:45:00,
2013-03-25 23:50:00,32.2,21.4,30.02,SSW,207,0.0,0.0,64,0.00,,,0.00,Weather View 32 v70,2013-03-26 04:50:00,
2013-03-25 23:55:00,32.1,21.7,30.02,South,184,0.0,0.0,65,0.00,,,0.00,Weather View 32 v70,2013-03-26 04:55:00,